Regional Weather Roundup
Issued by NWS Sterling, VA

Home | Current Version | Previous Version | Graphics & Text | Print | Product List | Glossary On
Versions: 1 2 3 4 5 6 7 8 9 10 11 12 13 14 15 16 17 18 19 20 21 22 23 24 25 26 27 28 29 30 31 32 33 34 35 36 37 38 39 40 41 42 43 44 45 46 47 48 49
000
ASUS41 KLWX 301110
RWRLWX

REGIONAL WEATHER ROUNDUP
NATIONAL WEATHER SERVICE BALTIMORE MD/WASHINGTON DC
700 AM EDT TUE SEP 30 2014

Note: "FAIR" indicates few or no clouds below 12,000 feet
with no significant weather and/or obstructions to visibility.
 TC=TEMPERATURE CELSIUS

 * =Non NWS site. Station does not report precipitation (e.g. rain,
    snow, etc.), thunder, or fog.

DCZ001-MDZ009-015-VAZ040>042-051-053>054-301200-
WASHINGTON METRO

CITY           SKY/WX    TMP DP  RH WIND       PRES   REMARKS
WASHINGTON NAT CLOUDY    68  62  81 CALM      29.92S
DULLES         FOG       62  62 100 S3        29.92R VSB 1/8
ANDREWS AFB    FOG       63  63 100 CALM      29.93R VSB 3/4
QUANTICO       CLOUDY    64  62  93 W5        29.93R
COLLEGE PARK*  CLOUDY    66  64  94 CALM      29.92R
LEESBURG*      CLOUDY    63  63 100 S3        29.93S
MANASSAS*      CLOUDY    64  64 100 CALM      29.92S
GAITHERSBURG*  CLOUDY    63  61  94 CALM      29.96R

$$

MDZ006>007-011-014-301200-
BALTIMORE METRO

CITY           SKY/WX    TMP DP  RH WIND       PRES   REMARKS
BWI AIRPORT    CLOUDY    64  62  93 SE3       29.92R FOG
MD SCIENCE CTR   N/A     66  63  90 MISG      29.92R
MARTIN STATE   MOCLDY    66  66 100 CALM      29.94R FOG
ANNAPOLIS        N/A     65  62  90 CALM      29.93R
FORT MEADE*    CLOUDY    61  61 100 CALM      29.94S

$$

MDZ012-015-019>023-301200-
MARYLAND EASTERN SHORE

CITY           SKY/WX    TMP DP  RH WIND       PRES   REMARKS
OCEAN CITY     CLOUDY   N/A N/A N/A NW5       29.93R
SALISBURY      CLOUDY    65  61  87 CALM      29.93R
BAY BRIDGE AP*   N/A     63  63 100 CALM      29.92S
CAMBRIDGE*     PTCLDY    59  55  88 CALM      29.92S
EASTON*          N/A     61  61 100 CALM      29.97R

$$

MDZ017>025-301200-
SOUTHERN MARYLAND

CITY           SKY/WX    TMP DP  RH WIND       PRES   REMARKS
PATUXENT RIVER CLOUDY    63  62  97 CALM      29.93R FOG
ST INIGOES     CLOUDY    64  61  90 CALM      29.92R
LEONARDTOWN*   CLOUDY    63  61  94 CALM      29.94R

$$

MDZ003>005-301200-
NORTH CENTRAL MARYLAND

CITY           SKY/WX    TMP DP  RH WIND       PRES   REMARKS
FREDERICK*     CLOUDY    66  64  94 VRB3      29.94S
HAGERSTOWN APT CLEAR     60  58  92 CALM      29.91R
WESTMINSTER*   CLOUDY    63  61  94 CALM      29.93R

$$

MDZ501>502-301200-
WESTERN MARYLAND

CITY           SKY/WX    TMP DP  RH WIND       PRES   REMARKS
OAKLAND*       CLEAR     54 N/A N/A SW6       29.97S
CUMBERLAND*    NOT AVBL

$$

VAZ025>031-301200-
SHENANDOAH VALLEY

CITY           SKY/WX    TMP DP  RH WIND       PRES   REMARKS
WINCHESTER*    CLEAR     55  54  94 CALM      29.92S
STAUNTON*      FOG       49  48  95 CALM      29.96R VSB 3/4

$$

WVZ021-048>050-054>055-301200-
EASTERN WEST VIRGINIA PANHANDLE

CITY           SKY/WX    TMP DP  RH WIND       PRES   REMARKS
MARTINSBURG    FOG       55  52  89 CALM      29.92R VSB 1/4
PETERSBURG*    FOG      N/A N/A N/A CALM      29.95R VSB 1/4

$$

VAZ036>039-050-301200-
CENTRAL FOOTHILLS

CITY           SKY/WX    TMP DP  RH WIND       PRES   REMARKS
CHARLOTTESVILL FOG       62  61  96 CALM      29.92R VSB 1/4
ORANGE*        CLOUDY    63  61  94 CALM      29.94R

$$

VAZ055>057-301200-
NORTH AND CENTRAL PIEDMONT

CITY           SKY/WX    TMP DP  RH WIND       PRES   REMARKS
FREDERICKSBRG* CLOUDY    65  65 100 CALM      29.91S
STAFFORD*      CLOUDY    63  63 100 CALM      29.96R

$$

NCZ024-NYZ072-PAZ021-071-VAZ022-071-301200-
OTHER REGIONAL OBSERVATIONS

CITY           SKY/WX    TMP DP  RH WIND       PRES   REMARKS
NEW YORK CITY  CLOUDY    68  61  78 SE3       29.98R
PHILADELPHIA   CLOUDY    65  61  87 SE3       29.93S
PITTSBURGH     PTCLDY    53  50  89 CALM      29.89S
ROANOKE        FOG       58  57  97 N3        29.97R VSB 1/2
RICHMOND       CLOUDY    64  63  96 CALM      29.92R FOG
RALEIGH        FOG       62  61  96 CALM      29.93S VSB 1/16

$$

ANZ530>537-301200-
MARINE OBSERVATIONS

STATION/POSITION TIME  TEMP    WIND        PRES
                       AIR SEA DIR/SP/G
                 (UTC) (F)     (DEG/KT/KT) (MB)
THOMAS PT LIGHT  1100   66 71  250/  1/  2 1014.4R
BALT KEY BRIDGE  1100   66     150/  5/  7 1012.7F
COVE POINT       1100   64     190/  5/  6 1013.2R
LEWISETTA        1100   63 71  270/  3/  4 1012.8S
SOLOMONS ISLAND  1100      72                N/A
PINEY POINT      1100          340/  1/  2   N/A

$$




USA.gov is the U.S. government's official web portal to all federal, state and local government web resources and services.